星链-2630 (STARLINK-2630 )

导读

STARLINK-2630是美国太空探索技术公司星链星座的卫星,于2021年5月4日发射。作为星链互联网星座组网卫星,它通过低轨部署为全球提供高速互联网服务,尤其覆盖偏远地区,目前已在轨运行近5年,参与构建全球低轨卫星通信网络,支撑星链的全球互联服务能力。

Basic Information
目录编号:
48381
目录名称:
STARLINK-2630
国际标识:
2021-038AE
轨道中心:
EARTH
卫星名称:
星链-2630
卫星全名:
星链-2630 (STARLINK-2630 )
卫星状态:
在轨 (已飞行1956 天)
发射日期:
2021-05-04 UTC
国别 :
美国 (US)
星等 :
--
This satellite is enrolled in the Space Conjunction Data Service (SCDS) and the current flight risk assessment level is: No High Risk
Orbit Information
数据来源 国际轨道数据 AOE轨道数据
星历时间 2026-09-11T14:18:07+0800
12小时前
查看轨道信息
2026-09-05T22:00:00+0800
6天前
查看轨道信息
半长轴 6848.88km 6848.837km
偏心率 0.0001306 0.000327
轨道倾角 53.159° 53.154°
近地点辐角 94.523° 106.226°
升交点赤经 204.744° 231.191°
平近点角 265.592° 240.337°
近地点 469.848km 468.46km
远地点 471.638km 472.94km
周期 94.013分钟 94.012分钟
每日圈数 15.316992 15.317136
Detailed Information
固有亮度:
5
最大亮度:
2.5
卫星平台:
Starlink V1.0
覆盖范围:
全球
运营商:
太空探索技术公司
运营商所在国:
美国
制造商(研发单位):
太空探索技术公司
制造商所在国:
美国
使用方式:
暂无
Satellite Introduction
星链(Starlink)计划是由太空探索技术公司(SpaceX)提出的一个巨型低轨卫星互联网星座项目,计划在2019年至2024年间在太空搭建由约1.2万颗卫星组成的“星链”网络,其中1584颗将部署在地球上空550千米处的近地轨道,并从2020年开始工作。该卫星仍在工作。
2D Orbit Map
3D Orbit Map
Orbit Altitude Analysis Chart
Orbit Inclination Analysis Chart
Orbit Comprehensive Analysis Chart
View Comprehensive Chart
Conjunction Data List
Event ID Objects TCA Miss Dist (km) Collision Risk Probability Collision Risk Index (CRI) Action
CDM_260913-102004-838106-933921
2026-09-13T
10:20:50+0000
2.307 km
极远距离
1.737083E-6 低风险 0.4
CDM_260911-173504-838106-931921
2026-09-11T
17:35:45+0000
2.600 km
极远距离
1.32227E-6 低风险 0.37
Miss Distance Evolution Trend with All Objects
Collision Probability Evolution Trend with All Objects